Time,TemperatureF,DewpointF,PressureIn,WindDirection,WindDirectionDegrees,WindSpeedMPH,WindSpeedGustMPH,Humidity,HourlyPrecipIn,Conditions,Clouds,dailyrainin,SoftwareType,DateUTC
2013-01-07 08:21:00,30.0,25.7,30.12,North,0,0.0,0.0,84,0.00,,,0.00,WUHU216HW,2013-01-07 07:21:00,
2013-01-07 08:26:00,30.0,25.7,30.12,SE,135,0.0,0.0,84,0.00,,,0.00,WUHU216HW,2013-01-07 07:26:00,
2013-01-07 08:31:00,30.3,26.1,30.12,ESE,113,0.0,0.0,84,0.00,,,0.00,WUHU216HW,2013-01-07 07:31:00,
2013-01-07 08:36:00,30.3,26.1,30.12,ESE,113,0.0,0.0,84,0.00,,,0.00,WUHU216HW,2013-01-07 07:36:00,
2013-01-07 08:41:00,30.3,26.1,30.13,ESE,113,0.0,0.0,84,0.00,,,0.00,WUHU216HW,2013-01-07 07:41:00,
2013-01-07 08:46:00,30.7,26.4,30.14,SSE,158,0.0,0.0,84,0.00,,,0.00,WUHU216HW,2013-01-07 07:46:00,
2013-01-07 08:51:00,30.7,26.4,30.14,SSE,158,0.0,0.0,84,0.00,,,0.00,WUHU216HW,2013-01-07 07:51:00,
2013-01-07 08:56:00,30.7,26.7,30.14,SSE,158,0.0,0.0,85,0.00,,,0.00,WUHU216HW,2013-01-07 07:56:00,
2013-01-07 09:01:00,30.7,26.7,30.15,SSE,158,0.0,0.0,85,0.00,,,0.00,WUHU216HW,2013-01-07 08:01:00,
2013-01-07 09:06:00,31.2,27.3,30.15,SSE,158,0.0,0.0,85,0.00,,,0.00,WUHU216HW,2013-01-07 08:06:00,
2013-01-07 09:11:00,31.2,27.0,30.15,SSE,158,0.0,0.0,84,0.00,,,0.00,WUHU216HW,2013-01-07 08:11:00,
2013-01-07 09:16:00,31.6,27.6,30.15,SSE,158,0.0,0.0,85,0.00,,,0.00,WUHU216HW,2013-01-07 08:16:00,
2013-01-07 09:21:00,31.8,27.5,30.16,South,180,0.0,0.0,84,0.00,,,0.00,WUHU216HW,2013-01-07 08:21:00,
2013-01-07 09:26:00,32.1,27.9,30.17,SSE,158,0.0,0.0,84,0.00,,,0.00,WUHU216HW,2013-01-07 08:26:00,
2013-01-07 09:31:00,32.5,27.9,30.17,SE,135,0.0,0.0,83,0.00,,,0.00,WUHU216HW,2013-01-07 08:31:00,
2013-01-07 09:36:00,32.9,27.9,30.17,SE,135,0.0,0.0,82,0.00,,,0.00,WUHU216HW,2013-01-07 08:36:00,
2013-01-07 09:41:00,33.0,28.1,30.17,ESE,113,0.0,0.0,82,0.00,,,0.00,WUHU216HW,2013-01-07 08:41:00,
2013-01-07 09:46:00,33.4,28.0,30.17,ESE,113,0.0,0.0,81,0.00,,,0.00,WUHU216HW,2013-01-07 08:46:00,
2013-01-07 09:51:00,33.6,28.0,30.18,South,180,0.0,0.0,80,0.00,,,0.00,WUHU216HW,2013-01-07 08:51:00,
2013-01-07 09:56:00,33.6,27.7,30.18,SSE,158,0.0,0.0,79,0.00,,,0.00,WUHU216HW,2013-01-07 08:56:00,
2013-01-07 10:01:00,33.6,27.7,30.18,SSE,158,2.6,2.6,79,0.00,,,0.00,WUHU216HW,2013-01-07 09:01:00,
2013-01-07 10:07:00,33.8,27.5,30.19,ESE,113,1.3,2.6,78,0.00,,,0.00,WUHU216HW,2013-01-07 09:07:00,
2013-01-07 10:12:00,33.9,27.4,30.19,ESE,113,0.0,1.7,77,0.00,,,0.00,WUHU216HW,2013-01-07 09:12:00,
2013-01-07 10:17:00,34.1,27.2,30.19,SSE,158,0.0,0.0,76,0.00,,,0.00,WUHU216HW,2013-01-07 09:17:00,
2013-01-07 10:22:00,34.1,26.9,30.19,SE,135,0.0,1.3,75,0.00,,,0.00,WUHU216HW,2013-01-07 09:22:00,
2013-01-07 10:27:00,33.9,26.4,30.20,East,90,0.0,1.3,74,0.00,,,0.00,WUHU216HW,2013-01-07 09:27:00,
2013-01-07 13:39:00,35.7,24.7,30.19,North,0,0.0,0.0,64,0.00,,,0.00,WUHU216HW,2013-01-07 12:39:00,
2013-01-07 13:49:00,35.4,24.8,30.19,WNW,293,0.8,4.2,65,0.00,,,0.00,WUHU216HW,2013-01-07 12:49:00,
2013-01-07 13:54:00,35.9,25.3,30.20,WNW,293,0.0,4.2,65,0.00,,,0.00,WUHU216HW,2013-01-07 12:54:00,
2013-01-07 13:59:00,36.3,25.2,30.20,NNW,338,0.8,2.2,64,0.00,,,0.00,WUHU216HW,2013-01-07 12:59:00,
2013-01-07 14:04:00,35.9,24.2,30.20,NNW,338,0.0,3.3,62,0.00,,,0.00,WUHU216HW,2013-01-07 13:04:00,
2013-01-07 14:09:00,35.9,24.2,30.20,WNW,293,0.8,3.3,63,0.00,,,0.00,WUHU216HW,2013-01-07 13:09:00,
2013-01-07 14:14:00,35.6,24.0,30.21,NW,315,0.0,1.3,63,0.00,,,0.00,WUHU216HW,2013-01-07 13:14:00,
2013-01-07 14:19:00,35.4,24.4,30.21,WNW,293,1.3,2.0,64,0.00,,,0.00,WUHU216HW,2013-01-07 13:19:00,
2013-01-07 14:24:00,34.8,24.2,30.21,WNW,293,0.0,3.8,65,0.00,,,0.00,WUHU216HW,2013-01-07 13:24:00,
2013-01-07 21:23:00,24.4,19.7,30.30,NW,315,0.0,0.0,82,0.00,,,0.00,WUHU216HW,2013-01-07 20:23:00,
2013-01-07 21:33:00,24.0,19.4,30.30,NNW,338,0.0,0.0,82,0.00,,,0.00,WUHU216HW,2013-01-07 20:33:00,
2013-01-07 21:38:00,24.0,19.6,30.31,NW,315,0.0,0.0,83,0.00,,,0.00,WUHU216HW,2013-01-07 20:38:00,
2013-01-07 21:43:00,24.0,19.6,30.31,SSE,158,0.0,0.0,83,0.00,,,0.00,WUHU216HW,2013-01-07 20:43:00,